Voltar ao catálogo

STARLINK-37792

AtivoComunicaçõesSSO
NORAD 69437·PAYLOAD·🇺🇸 United States

Lançado Jun 7, 2026 de Vandenberg Space Force Base

Loading…

Próximas Passagens (próximas 24 horas)

TLE

AtualizadoSource: CelesTrak SupGP

Época: Sep 15, 2026, 03:15 UTC

1 69437C 26126T   26258.13590278 -.00000370  00000+0 -11486-4 0  2587
2 69437  97.2851 119.3829 0002173  95.4962  65.5236 15.33449934    17

Acompanhe STARLINK-37792 em tempo real com AllMySat

Download on the App Store